Tehachapi, CA

12:11 AM PDT on July 22, 2017 (GMT -0700)
Tehachapi Municipal

Weather History for KTSP - October, 2012

Change the Weather History Date:

Friday, October 12, 2012

  Actual Average Record
Temperature  
Mean Temperature 47 °F -  
Max Temperature 50 °F 71 °F 84 °F (2015)
Min Temperature 44 °F 43 °F 35 °F (2013)
Degree Days  
Heating Degree Days 18    
Moisture  
Dew Point 44 °F    
Average Humidity 91    
Maximum Humidity 100    
Minimum Humidity 76    
Precipitation  
Precipitation 0.09 in - - ()
Sea Level Pressure  
Sea Level Pressure 30.11 in    
Wind  
Wind Speed 10 mph (NW)    
Max Wind Speed 17 mph    
Max Gust Speed 23 mph    
Visibility 6 miles    
Events Fog , Rain    
Averages and records for this station are not official NWS values.
T = Trace of Precipitation, MM = Missing Value Source: NWS Daily Summary

Daily Weather History Graph

Daily Weather History Graph

Search for Another Location

Airport or City:

Trip Planner

Search our weather history database for the weather conditions in past years. The results will help you decide how hot, cold, wet, or windy it might be!

Date:

Astronomy

Oct. 12, 2012 Rise Set
Actual Time 6:57 AM PDT 6:21 PM PDT
Civil Twilight 6:32 AM PDT 6:47 PM PDT
Nautical Twilight 6:02 AM PDT 7:16 PM PDT
Astronomical Twilight 5:33 AM PDT 7:45 PM PDT
Moon 3:52 AM PDT (10/12) 4:29 PM PDT (10/12)
Length of Visible Light 12h 14m
Length of Day
11h 24m
Waning Crescent, 10% of the Moon is Illuminated
Oct 12
Waning Crescent
Oct 15
New
Oct 21
First Quarter
Oct 29
Full
Nov 6
Last Quarter

Hourly Weather History & Observations

Time (PDT) Temp. Windchill Dew Point Humidity Pressure Visibility Wind Dir Wind Speed Gust Speed Precip Events Conditions
12:15 AM 46.4 °F 42.4 °F 41.0 °F 81% 30.00 in 10.0 mi NW 8.1 mph - N/A   Overcast
12:35 AM 46.4 °F 42.9 °F 41.0 °F 81% 30.00 in 10.0 mi NW 6.9 mph - N/A   Overcast
12:55 AM 44.6 °F 40.7 °F 41.0 °F 87% 30.00 in 10.0 mi NW 6.9 mph - N/A   Overcast
1:15 AM 44.6 °F 41.4 °F 41.0 °F 87% 30.00 in 10.0 mi WNW 5.8 mph - N/A   Mostly Cloudy
1:35 AM 46.4 °F 42.9 °F 41.0 °F 81% 30.00 in 10.0 mi NW 6.9 mph - N/A   Overcast
1:55 AM 46.4 °F 43.5 °F 41.0 °F 81% 30.00 in 10.0 mi NW 5.8 mph - N/A   Overcast
2:15 AM 44.6 °F 41.4 °F 41.0 °F 87% 30.00 in 10.0 mi WNW 5.8 mph - N/A   Overcast
2:35 AM 44.6 °F 40.7 °F 41.0 °F 87% 30.00 in 10.0 mi WNW 6.9 mph - N/A   Overcast
2:55 AM 46.4 °F 42.9 °F 41.0 °F 81% 30.00 in 10.0 mi WNW 6.9 mph - N/A   Overcast
3:15 AM 46.4 °F 42.9 °F 41.0 °F 81% 30.00 in 10.0 mi WNW 6.9 mph - N/A   Overcast
3:35 AM 46.4 °F 42.4 °F 41.0 °F 81% 30.00 in 8.0 mi WNW 8.1 mph - N/A Rain Light Rain
3:55 AM 44.6 °F 39.2 °F 42.8 °F 93% 30.01 in 7.0 mi NW 10.4 mph - N/A Rain Light Rain
4:15 AM 44.6 °F 39.2 °F 42.8 °F 93% 30.01 in 3.0 mi NW 10.4 mph - 0.01 in Rain Light Rain
4:35 AM 44.6 °F 40.2 °F 44.6 °F 100% 30.02 in 2.0 mi NW 8.1 mph - 0.08 in Rain Light Rain
4:55 AM 44.6 °F 40.2 °F 44.6 °F 100% 30.02 in 2.0 mi NW 8.1 mph - 0.09 in Rain Light Rain
5:15 AM 44.6 °F 39.7 °F 44.6 °F 100% 30.02 in 2.5 mi NW 9.2 mph - N/A Rain Light Rain
5:35 AM 44.6 °F 38.8 °F 44.6 °F 100% 30.03 in 3.0 mi West 11.5 mph - N/A   Overcast
5:55 AM 44.6 °F 39.7 °F 44.6 °F 100% 30.03 in 5.0 mi West 9.2 mph - N/A   Overcast
6:15 AM 44.6 °F 40.2 °F 44.6 °F 100% 30.04 in 2.0 mi WNW 8.1 mph - N/A   Overcast
6:55 AM 44.6 °F 40.2 °F 44.6 °F 100% 30.06 in 0.2 mi NW 8.1 mph - N/A Fog Fog
7:15 AM 44.6 °F 39.2 °F 44.6 °F 100% 30.05 in 0.2 mi NW 10.4 mph - N/A Fog Fog
7:35 AM 44.6 °F 40.2 °F 44.6 °F 100% 30.06 in 0.8 mi WNW 8.1 mph - N/A   Overcast
7:55 AM 44.6 °F 39.7 °F 44.6 °F 100% 30.07 in 2.0 mi NW 9.2 mph - N/A   Overcast
8:15 AM 44.6 °F 40.7 °F 44.6 °F 100% 30.08 in 2.0 mi NW 6.9 mph - N/A   Overcast
8:55 AM 46.4 °F 40.7 °F 46.4 °F 100% 30.10 in 4.0 mi NW 12.7 mph - N/A   Overcast
9:15 AM 46.4 °F 40.4 °F 46.4 °F 100% 30.11 in 2.5 mi NW 13.8 mph - N/A   Overcast
9:55 AM 46.4 °F 41.1 °F 46.4 °F 100% 30.11 in 4.0 mi NW 11.5 mph - N/A   Overcast
10:15 AM 46.4 °F 41.1 °F 46.4 °F 100% 30.12 in 3.0 mi NW 11.5 mph - N/A   Overcast
10:35 AM 46.4 °F 40.4 °F 46.4 °F 100% 30.13 in 4.0 mi NW 13.8 mph - N/A   Overcast
10:55 AM 46.4 °F 40.4 °F 46.4 °F 100% 30.14 in 4.0 mi WNW 13.8 mph - N/A   Overcast
11:55 AM 46.4 °F 40.4 °F 46.4 °F 100% 30.16 in 7.0 mi NW 13.8 mph - N/A   Overcast
12:35 PM 48.2 °F - 44.6 °F 87% 30.16 in 7.0 mi WNW 17.3 mph 20.7 mph N/A   Overcast
12:55 PM 48.2 °F - 44.6 °F 87% 30.16 in 8.0 mi NW 16.1 mph - N/A   Overcast
1:15 PM 50.0 °F - 44.6 °F 82% 30.15 in 8.0 mi NW 16.1 mph 20.7 mph N/A   Overcast
1:55 PM 50.0 °F - 42.8 °F 76% 30.15 in 8.0 mi WNW 15.0 mph - N/A   Overcast
2:15 PM 50.0 °F - 42.8 °F 76% 30.15 in 9.0 mi NW 15.0 mph 21.9 mph N/A   Overcast
2:35 PM 50.0 °F - 44.6 °F 82% 30.15 in 7.0 mi NW 16.1 mph 23.0 mph N/A   Overcast
2:55 PM 50.0 °F - 44.6 °F 82% 30.15 in 7.0 mi NW 12.7 mph 20.7 mph N/A   Overcast
3:35 PM 48.2 °F - 44.6 °F 87% 30.16 in 5.0 mi NW 15.0 mph 19.6 mph N/A   Haze
4:15 PM 48.2 °F - 44.6 °F 87% 30.17 in 6.0 mi NW 13.8 mph 18.4 mph N/A   Haze
4:35 PM 48.2 °F - 44.6 °F 87% 30.17 in 6.0 mi NW 15.0 mph 19.6 mph N/A   Haze
4:55 PM 48.2 °F - 44.6 °F 87% 30.18 in 5.0 mi NW 13.8 mph - N/A   Overcast
5:15 PM 48.2 °F - 44.6 °F 87% 30.18 in 4.0 mi NW 13.8 mph - N/A   Overcast
5:55 PM 48.2 °F - 44.6 °F 87% 30.18 in 5.0 mi NW 15.0 mph - N/A   Overcast
6:15 PM 48.2 °F - 44.6 °F 87% 30.18 in 5.0 mi NW 15.0 mph - N/A   Mostly Cloudy
6:35 PM 48.2 °F - 44.6 °F 87% 30.18 in 7.0 mi NW 13.8 mph - N/A   Overcast
6:55 PM 48.2 °F - 44.6 °F 87% 30.19 in 7.0 mi NW 13.8 mph - N/A   Overcast
7:15 PM 48.2 °F - 44.6 °F 87% 30.19 in 7.0 mi NW 12.7 mph 19.6 mph N/A   Overcast
7:55 PM 48.2 °F - 44.6 °F 87% 30.20 in 7.0 mi NW 15.0 mph - N/A   Overcast
8:15 PM 48.2 °F - 44.6 °F 87% 30.20 in 7.0 mi NW 12.7 mph - N/A   Overcast
9:35 PM 46.4 °F 40.7 °F 44.6 °F 93% 30.22 in 6.0 mi NW 12.7 mph 17.3 mph N/A   Overcast
9:55 PM 46.4 °F 41.9 °F 46.4 °F 100% 30.23 in 5.0 mi NW 9.2 mph - N/A   Overcast
10:15 PM 46.4 °F 41.1 °F 46.4 °F 100% 30.23 in 5.0 mi NW 11.5 mph - N/A   Overcast
10:35 PM 46.4 °F 41.5 °F 46.4 °F 100% 30.24 in 5.0 mi NW 10.4 mph - N/A   Overcast
11:15 PM 46.4 °F 41.9 °F 44.6 °F 93% 30.24 in 5.0 mi NW 9.2 mph - N/A   Overcast
11:35 PM 46.4 °F 41.9 °F 44.6 °F 93% 30.23 in 6.0 mi NW 9.2 mph - N/A   Overcast